CW4167 Weather Reports


Display with metric or nautical units.
time (UTC)temp
F
wind
direction
speed
MPH
gust
MPH
rain 1hr
in
rain 24hr
in
rain mn
in
humidity
%
barometer
mb
20260906022705 56 285 13.0 24.0 0.00 0.01 0.00 81 1014.7
20260906021707 56 293 13.0 24.0 0.00 0.01 0.00 80 1014.7
20260906021206 56 281 16.0 22.0 0.00 0.01 0.00 80 1014.7
20260906020206 56 290 17.0 24.0 0.00 0.01 0.00 80 1014.7
20260906015207 57 296 16.0 21.0 0.00 0.01 0.00 79 1014.6
20260906014708 57 280 15.0 24.0 0.00 0.01 0.00 79 1014.6
20260906014208 57 281 20.0 25.0 0.00 0.01 0.00 79 1014.6
20260906013706 57 282 13.0 24.0 0.00 0.01 0.00 79 1014.6
20260906012707 57 290 17.0 28.0 0.00 0.01 0.00 79 1014.5
20260906012207 57 288 14.0 23.0 0.00 0.01 0.00 79 1014.3
20260906010705 57 278 16.0 30.0 0.00 0.01 0.00 79 1014.0
20260906005206 57 288 21.0 28.0 0.00 0.01 0.00 79 1014.0
20260906004207 57 293 17.0 25.0 0.00 0.01 0.00 79 1013.9
20260906003707 57 283 23.0 30.0 0.00 0.01 0.00 79 1013.9
20260906003205 57 290 21.0 36.0 0.00 0.02 0.00 79 1013.9
20260906002705 57 290 21.0 31.0 0.00 0.02 0.00 79 1013.8
20260906001707 57 285 18.0 29.0 0.00 0.02 0.00 79 1013.5
20260906001206 57 286 21.0 29.0 0.00 0.02 0.00 79 1013.5
20260905235707 57 282 15.0 30.0 0.00 0.05 0.00 79 1013.4
20260905235208 57 296 16.0 25.0 0.00 0.06 0.00 79 1013.1
20260905234208 57 281 21.0 29.0 0.00 0.06 0.00 80 1013.1
20260905233707 57 294 16.0 26.0 0.00 0.06 0.00 80 1013.1
20260905232707 57 284 18.0 24.0 0.00 0.06 0.00 80 1013.1
20260905232205 57 286 18.0 31.0 0.00 0.06 0.00 80 1012.7
20260905231708 57 286 19.0 26.0 0.00 0.06 0.00 80 1012.7
20260905231207 57 292 18.0 26.0 0.00 0.06 0.00 80 1012.7
20260905225206 57 290 20.0 29.0 0.00 0.06 0.00 79 1012.4
20260905224206 57 280 15.0 28.0 0.00 0.06 0.00 79 1012.3
20260905223705 57 289 20.0 23.0 0.00 0.06 0.00 79 1012.2
20260905223205 57 285 17.0 30.0 0.00 0.06 0.00 78 1012.1
20260905222705 57 275 19.0 30.0 0.00 0.06 0.00 78 1012.0
20260905221706 57 280 18.0 25.0 0.00 0.06 0.00 77 1012.1
20260905220206 57 281 21.0 26.0 0.00 0.06 0.00 77 1011.7
20260905214707 58 277 20.0 28.0 0.00 0.06 0.06 77 1011.6
20260905214207 58 282 22.0 30.0 0.00 0.06 0.06 77 1011.6
20260905202205 58 278 21.0 33.0 0.00 0.06 0.06 77 1010.8
20260905195206 58 284 18.0 30.0 0.00 0.06 0.06 76 1010.6
20260905194206 58 273 18.0 31.0 0.00 0.06 0.06 75 1010.5
20260905193205 58 288 20.0 26.0 0.00 0.06 0.06 75 1010.4
20260905192705 58 285 18.0 36.0 0.00 0.06 0.06 75 1010.4
20260905191705 58 286 21.0 32.0 0.00 0.06 0.06 75 1010.2
20260905191206 58 293 20.0 32.0 0.00 0.06 0.06 76 1010.2
20260905190706 58 276 14.0 28.0 0.00 0.06 0.06 77 1010.2
20260905184206 58 269 10.0 22.0 0.00 0.06 0.06 77 1009.8
20260905183207 58 258 11.0 20.0 0.00 0.06 0.06 76 1009.8
20260905182705 58 280 12.0 23.0 0.00 0.06 0.06 76 1009.7
20260905182206 59 278 11.0 21.0 0.00 0.06 0.06 76 1009.7
20260905180207 59 257 17.0 24.0 0.00 0.06 0.06 76 1009.3
20260905175705 59 255 17.0 26.0 0.00 0.06 0.06 76 1009.2
20260905174207 59 282 12.0 20.0 0.00 0.06 0.06 75 1009.2
20260905173705 60 280 10.0 23.0 0.00 0.06 0.06 74 1009.0
20260905171705 60 258 18.0 26.0 0.00 0.07 0.06 73 1008.7
20260905170706 61 279 18.0 29.0 0.00 0.13 0.06 70 1008.6
20260905170207 61 279 19.0 30.0 0.00 0.14 0.06 70 1008.7
20260905165705 61 277 13.0 24.0 0.00 0.15 0.06 71 1008.6
20260905165205 62 267 17.0 28.0 0.00 0.16 0.06 71 1008.5
20260905164705 62 292 13.0 28.0 0.00 0.17 0.06 71 1008.3
20260905164205 62 268 17.0 30.0 0.00 0.19 0.06 71 1008.3
20260905163706 62 276 15.0 26.0 0.00 0.21 0.06 71 1008.2
20260905161705 63 261 12.0 24.0 0.00 0.21 0.06 69 1008.0
20260905160206 62 278 12.0 22.0 0.00 0.21 0.06 73 1007.8
20260905155205 63 271 8.0 23.0 0.00 0.21 0.06 72 1007.8
20260905154707 63 292 15.0 28.0 0.00 0.21 0.06 71 1007.8
20260905154205 63 267 9.0 18.0 0.00 0.21 0.06 72 1007.8
20260905152205 63 269 14.0 22.0 0.00 0.22 0.06 71 1007.5
20260905145206 61 273 15.0 18.0 0.00 0.22 0.06 75 1007.1
20260905144708 62 290 12.0 25.0 0.00 0.22 0.06 74 1007.1
20260905144205 63 275 16.0 25.0 0.00 0.22 0.06 72 1007.1
20260905143706 63 260 10.0 20.0 0.00 0.22 0.06 70 1007.1
20260905143206 64 259 14.0 22.0 0.00 0.22 0.06 68 1007.2
20260905142205 65 255 10.0 20.0 0.00 0.22 0.06 70 1007.1
20260905141706 65 269 12.0 20.0 0.00 0.22 0.06 70 1007.1
20260905141206 65 280 10.0 23.0 0.00 0.22 0.06 70 1007.0
20260905140706 65 258 10.0 17.0 0.00 0.22 0.06 70 1007.0
20260905140207 64 249 13.0 26.0 0.00 0.22 0.06 69 1007.0
20260905135205 64 240 14.0 18.0 0.00 0.22 0.06 69 1007.0
20260905134706 64 263 16.0 23.0 0.00 0.22 0.06 69 1007.0
20260905133706 63 248 18.0 23.0 0.00 0.22 0.06 71 1007.0
20260905133206 63 261 13.0 23.0 0.00 0.22 0.06 70 1007.0
20260905132705 64 267 16.0 30.0 0.00 0.22 0.06 69 1006.8
20260905131706 65 265 13.0 29.0 0.00 0.23 0.06 68 1006.6
20260905130705 65 278 12.0 22.0 0.00 0.30 0.06 69 1006.7
20260905130205 65 284 14.0 28.0 0.00 0.30 0.06 68 1006.7
20260905125705 65 255 13.0 24.0 0.00 0.31 0.06 70 1006.6
20260905123705 65 283 13.0 25.0 0.00 0.32 0.06 68 1006.2
20260905122705 64 301 14.0 20.0 0.00 0.33 0.06 69 1006.1
20260905122207 64 282 17.0 32.0 0.00 0.33 0.06 68 1006.1
20260905115709 64 269 18.0 28.0 0.00 0.35 0.06 66 1005.7
20260905114709 64 271 17.0 24.0 0.00 0.36 0.06 67 1005.6
20260905113207 63 268 14.0 22.0 0.00 0.37 0.06 68 1005.7
20260905112707 63 257 18.0 26.0 0.00 0.38 0.06 68 1005.7
20260905112208 63 285 17.0 30.0 0.00 0.39 0.06 68 1005.6
20260905111208 63 282 15.0 24.0 0.00 0.39 0.06 71 1005.4
20260905105207 63 257 15.0 22.0 0.00 0.41 0.06 71 1005.4
20260905104708 64 265 19.0 25.0 0.00 0.41 0.06 69 1005.5
20260905104208 64 253 16.0 25.0 0.00 0.43 0.06 70 1005.4
20260905101707 63 256 16.0 22.0 0.00 0.45 0.06 72 1005.2
20260905101207 63 247 17.0 28.0 0.00 0.45 0.06 71 1005.1
20260905100209 63 266 19.0 29.0 0.00 0.45 0.06 71 1005.0
20260905094709 63 251 15.0 22.0 0.00 0.46 0.06 74 1004.9
20260905094209 62 269 14.0 23.0 0.00 0.46 0.06 75 1005.0
20260905093708 62 262 18.0 26.0 0.00 0.46 0.06 74 1005.0
20260905091707 61 259 14.0 24.0 0.00 0.47 0.06 78 1004.9
20260905091210 60 243 14.0 24.0 0.00 0.47 0.06 79 1004.8
20260905090207 60 256 17.0 24.0 0.00 0.47 0.06 79 1004.8
20260905085208 59 253 14.0 24.0 0.00 0.47 0.06 79 1004.8
20260905084708 59 269 16.0 23.0 0.00 0.47 0.06 79 1004.7
20260905083707 59 255 12.0 22.0 0.00 0.47 0.06 80 1004.7
20260905082207 59 247 13.0 24.0 0.00 0.48 0.06 81 1004.6
20260905081208 59 264 11.0 20.0 0.00 0.49 0.06 81 1004.5
20260905080707 59 262 11.0 17.0 0.00 0.49 0.06 80 1004.6
20260905075207 60 242 20.0 26.0 0.00 0.50 0.06 77 1004.2
20260905074708 60 259 16.0 23.0 0.00 0.51 0.06 78 1004.2
20260905074209 61 277 12.0 26.0 0.00 0.51 0.06 78 1004.2
20260905073207 61 253 15.0 25.0 0.00 0.51 0.06 78 1004.2
20260905071707 61 255 16.0 20.0 0.00 0.51 0.06 80 1004.0
20260905070207 60 229 13.0 18.0 0.00 0.51 0.06 82 1003.9
20260905065709 60 256 10.0 20.0 0.00 0.51 0.06 82 1003.9
20260905065209 60 230 12.0 24.0 0.00 0.51 0.06 83 1003.9
20260905064708 59 249 12.0 20.0 0.00 0.51 0.06 83 1003.9
20260905064208 59 245 14.0 22.0 0.00 0.51 0.06 83 1003.9
20260905061708 58 255 11.0 21.0 0.00 0.51 0.06 84 1003.7
20260905061207 58 272 11.0 17.0 0.00 0.51 0.06 84 1003.7
20260905060707 58 226 9.0 18.0 0.00 0.51 0.06 84 1003.5
20260905060209 58 252 10.0 21.0 0.00 0.51 0.06 85 1003.5
20260905053208 57 250 7.0 14.0 0.01 0.51 0.06 86 1003.4
20260905052707 57 267 11.0 17.0 0.01 0.51 0.06 86 1003.4
20260905044707 56 251 10.0 17.0 0.00 0.50 0.05 86 1002.9
20260905043207 56 263 10.0 20.0 0.00 0.50 0.05 87 1002.8
20260905041208 56 257 11.0 21.0 0.00 0.50 0.05 88 1002.7
20260905033208 56 241 9.0 17.0 0.00 0.50 0.05 88 1002.4
20260905032708 56 253 9.0 17.0 0.00 0.50 0.05 88 1002.3
20260905032209 56 245 9.0 17.0 0.00 0.50 0.05 88 1002.3
20260905031707 56 259 9.0 14.0 0.00 0.50 0.05 88 1002.2
20260905030707 56 241 12.0 22.0 0.00 0.50 0.05 87 1002.2